Preview of NWS' New Version of Forecast
This preview is not operational and should not be used for support decisions.

Regional Weather Roundup (RWR)

Issued by National Weather Service (NWS)

                            
000
ASPQ40 PGUM 190910
RWRPQ 
WEATHER ROUNDUP FOR THE MARIANAS AND MICRONESIA
NATIONAL WEATHER SERVICE TIYAN GU
700 PM CHST MON AUG 19 2019

GUZ001>004-191000-
MARIANA ISLANDS-
  
CITY           SKY/WX    TMP DP  RH WIND       PRES   REMARKS
GUAM AIRPORT   PTCLDY    79  75  89 SE3       29.78S                  
ANDERSEN AFB   MOCLDY    77  75  94 SE3       29.78S                  
ROTA AIRPORT   MOCLDY    77  75  94 SE16      29.73S                  
TINIAN AP      PTCLDY    84  75  74 CALM      29.76R HX  92           
SAIPAN AP      PTCLDY    82  75  78 SE13      29.78R                  

$$

PMZ161-191000-
REPUBLIC OF PALAU-
  
CITY           SKY/WX    TMP DP  RH WIND       PRES   REMARKS
KOROR AP       LGT RAIN  77  73  88 W9        29.77R                  
KOROR WSO      NOT AVBL                                               

$$

PMZ171>174-191000-
FEDERATED STATES OF MICRONESIA-
  
CITY           SKY/WX    TMP DP  RH WIND       PRES   REMARKS
YAP AIRPORT    CLOUDY    79  73  83 S14       29.77R                  
CHUUK AP       CLOUDY    82  77  83 VRB5      29.80R HX  91           
POHNPEI AP     NOT AVBL                                               
POHNPEI WSO    CLOUDY    81  77  89 SE3       29.83R                  
KOSRAE AP      NOT AVBL                                               

$$

PMZ181-191000-
REPUBLIC OF THE MARSHALL ISLANDS-
  
CITY           SKY/WX    TMP DP  RH WIND       PRES   REMARKS
KWAJALEIN AP   CLEAR     82  75  78 CALM      29.79R                  
MAJURO AP      MOCLDY    84  77  79 W8        29.82R HX  94           
MAJURO WSO     MOCLDY    82  77  83 W7        29.80R HX  91           

$$